Regional Weather Roundup
Issued by NWS Albany, NY

Home | Current Version | Previous Version | Text Only | Print | Product List | Glossary On
Versions: 1 2 3 4 5 6 7 8 9 10 11 12 13 14 15 16 17 18 19 20 21 22 23 24 25 26 27 28 29 30 31 32 33 34 35 36 37 38 39 40 41 42 43 44 45 46 47 48 49
000
ASUS41 KALY 151710
RWRALY

NEW YORK STATE HOURLY WEATHER ROUNDUP
NATIONAL WEATHER SERVICE ALBANY NY
100 PM EDT MON SEP 15 2014

NOTE: "FAIR" INDICATES FEW OR NO CLOUDS BELOW 12,000 FEET WITH NO
SIGNIFICANT WEATHER AND/OR NO OBSTRUCTIONS TO VISIBILITY.

NYZ032-033-038>043-046>054-057>066-NYZ062>081-151800-
EAST


CITY           SKY/WX    TMP DP  RH WIND       PRES   REMARKS
ALBANY         MOSUNNY   62  41  46 CALM      30.20F
GLENS FALLS    SUNNY     60  40  47 VRB3      30.19F
POUGHKEEPSIE   MOSUNNY   66  41  40 VRB3      30.19F
NEWBURGH       MOSUNNY   63  46  55 CALM      30.22F
MONTGOMERY     PTSUNNY   67  45  45 CALM      30.19F
WHITE PLAINS   MOSUNNY   67  42  40 N5        30.19F
ISLIP          MOSUNNY   66  41  40 CALM      30.19F
NEW YORK CITY  MOSUNNY   67  43  41 NE6       30.19F
CENTRAL PARK   SUNNY     70  40  33 VRB5      30.22F
$$

NYZ005>009-017-018-044>046-055-056-151800-
CENTRAL


CITY           SKY/WX    TMP DP  RH WIND       PRES   REMARKS
FULTON         MOSUNNY   65  45  48 SW10      30.17F
SYRACUSE       PTSUNNY   68  45  43 VRB6      30.17F
ROME           SUNNY     63  43  48 S6        30.19F
ELMIRA         SUNNY     65  44  46 SW5       30.18F
BINGHAMTON     MOSUNNY   62  42  47 NW7       30.20F
MONTICELLO     SUNNY     61  41  48 NW5       30.21F
$$

NYZ026>034-041>043-151800-
NORTH


CITY           SKY/WX    TMP DP  RH WIND       PRES   REMARKS
WATERTOWN      PTSUNNY   64  46  52 SW8       30.16F
FORT DRUM      NOT AVBL
MASSENA        SUNNY     64  45  49 SW13      30.15F
SARANAC LAKE   PTSUNNY   56  38  50 VRB6      30.15F
PLATTSBURGH    SUNNY     61  47  59 SE13      30.16F
$$

NYZ001>004-010>016-019>021-151800-
WEST


CITY           SKY/WX    TMP DP  RH WIND       PRES   REMARKS
NIAGARA FALLS  PTSUNNY   65  46  50 SW8G17    30.14F
BUFFALO        PTSUNNY   64  47  53 SW13      30.15F
DUNKIRK        MOSUNNY   63  46  54 W7        30.16F
JAMESTOWN      PTSUNNY   57  46  67 SW7       30.18F
WELLSVILLE     MOSUNNY   62  45  53 W7        30.20F
ROCHESTER      PTSUNNY   66  46  48 SW10      30.16F
PENN YAN       MOSUNNY   65  46  50 S10       30.18F
$$

             KEY
       WCI = WIND CHILL INDEX
       VSB = VISIBILITY
       HX  = HEAT INDEX
$$



USA.gov is the U.S. government's official web portal to all federal, state and local government web resources and services.